N70CR MWCR-MUHA

Flight info

Callsign N70CR
Flight time 0h 43m
Altitude 33000
Route ATUVI DCT UCL DUTAN1A
Aircraft C700/M-SBDGHM1RWXY/LB2

Departure

Time 2026-04-26 21:24
Airport Owen Roberts International Airport (MWCR)

Arrival

Time 2026-04-26 22:08
Airport José Martí International Airport (MUHA)
Time Latitude Longitude Altitude Speed Heading
2026-04-26 21:19 19.29305 -81.36299 11 ft 0 kts 356°
2026-04-26 21:23 19.29308 -81.36290 11 ft 1 kts 98°
2026-04-26 21:23 19.29289 -81.36294 11 ft 6 kts 234°
2026-04-26 21:23 19.29252 -81.36315 11 ft 5 kts 164°
2026-04-26 21:23 19.29205 -81.36298 11 ft 9 kts 161°
2026-04-26 21:24 19.29178 -81.36242 11 ft 11 kts 83°
2026-04-26 21:24 19.29237 -81.35940 10 ft 89 kts 75°
2026-04-26 21:24 19.29468 -81.34963 125 ft 175 kts 73°
2026-04-26 21:24 19.29887 -81.33701 1028 ft 175 kts 68°
2026-04-26 21:25 19.30367 -81.32526 1830 ft 168 kts 62°
2026-04-26 21:25 19.31068 -81.31497 2413 ft 175 kts 41°
2026-04-26 21:25 19.32174 -81.30957 2495 ft 179 kts
2026-04-26 21:25 19.33357 -81.31222 2539 ft 168 kts 334°
2026-04-26 21:26 19.34496 -81.31788 2846 ft 194 kts 332°
2026-04-26 21:26 19.35731 -81.32477 3324 ft 211 kts 331°
2026-04-26 21:26 19.37033 -81.33243 3732 ft 216 kts 331°
2026-04-26 21:26 19.38361 -81.34020 4138 ft 219 kts 331°
2026-04-26 21:27 19.39778 -81.34849 4940 ft 248 kts 332°
2026-04-26 21:27 19.41366 -81.35773 6212 ft 270 kts 332°
2026-04-26 21:27 19.43016 -81.36734 7887 ft 270 kts 333°
2026-04-26 21:27 19.44711 -81.37606 9583 ft 272 kts 341°
2026-04-26 21:28 19.46566 -81.38178 10895 ft 288 kts 351°
2026-04-26 21:28 19.48638 -81.38361 12066 ft 305 kts 359°
2026-04-26 21:28 19.50806 -81.38382 13143 ft 330 kts 359°
2026-04-26 21:28 19.53018 -81.38513 14991 ft 318 kts 355°
2026-04-26 21:29 19.55273 -81.38717 16139 ft 332 kts 354°
2026-04-26 21:29 19.57603 -81.38912 17385 ft 340 kts 354°
2026-04-26 21:29 19.59994 -81.39082 18527 ft 349 kts 355°
2026-04-26 21:29 19.62441 -81.39252 19620 ft 355 kts 354°
2026-04-26 21:30 19.64922 -81.39444 20739 ft 360 kts 353°
2026-04-26 21:30 19.67444 -81.39638 21824 ft 366 kts 353°
2026-04-26 21:30 19.70008 -81.39829 22910 ft 372 kts 353°
2026-04-26 21:30 19.71728 -81.39956 23582 ft 376 kts 353°
2026-04-26 21:31 19.75255 -81.40221 24748 ft 383 kts 352°
2026-04-26 21:31 19.77936 -81.40423 25635 ft 389 kts 352°
2026-04-26 21:31 19.80617 -81.40625 26514 ft 394 kts 352°
2026-04-26 21:31 19.83373 -81.40832 27379 ft 400 kts 352°
2026-04-26 21:32 19.86170 -81.41042 28202 ft 406 kts 352°
2026-04-26 21:32 19.89005 -81.41256 29028 ft 411 kts 352°
2026-04-26 21:32 19.91876 -81.41472 29856 ft 416 kts 352°
2026-04-26 21:32 19.94786 -81.41691 30579 ft 422 kts 352°
2026-04-26 21:33 19.97733 -81.41913 31226 ft 428 kts 352°
2026-04-26 21:33 20.00722 -81.42139 31846 ft 433 kts 352°
2026-04-26 21:33 20.03749 -81.42354 32448 ft 439 kts 352°
2026-04-26 21:33 20.06775 -81.42551 32911 ft 447 kts 352°
2026-04-26 21:34 20.09940 -81.42768 32926 ft 465 kts 352°
2026-04-26 21:34 20.13230 -81.43004 32940 ft 482 kts 352°
2026-04-26 21:34 20.19997 -81.43461 32933 ft 490 kts 352°
2026-04-26 21:35 20.26805 -81.43936 32931 ft 491 kts 352°
2026-04-26 21:35 20.33610 -81.44405 32937 ft 490 kts 352°
2026-04-26 21:36 20.39256 -81.44796 32935 ft 488 kts 352°
2026-04-26 21:36 20.47131 -81.45343 32937 ft 488 kts 352°
2026-04-26 21:37 20.53908 -81.45814 32938 ft 488 kts 352°
2026-04-26 21:37 20.60675 -81.46284 32939 ft 487 kts 352°
2026-04-26 21:38 20.67386 -81.46750 32937 ft 486 kts 352°
2026-04-26 21:38 20.74137 -81.47221 32938 ft 486 kts 352°
2026-04-26 21:39 20.79742 -81.47611 32941 ft 486 kts 352°
2026-04-26 21:39 20.86477 -81.48080 32937 ft 484 kts 352°
2026-04-26 21:40 20.94300 -81.48627 32942 ft 484 kts 352°
2026-04-26 21:40 21.01021 -81.49096 32941 ft 484 kts 352°
2026-04-26 21:41 21.06602 -81.49486 32940 ft 483 kts 351°
2026-04-26 21:41 21.13306 -81.49955 32946 ft 482 kts 351°
2026-04-26 21:42 21.19997 -81.50424 32945 ft 482 kts 351°
2026-04-26 21:42 21.26672 -81.50891 32949 ft 480 kts 351°
2026-04-26 21:43 21.33340 -81.51360 32942 ft 480 kts 351°
2026-04-26 21:43 21.39947 -81.51823 32947 ft 474 kts 351°
2026-04-26 21:44 21.43179 -81.52044 32905 ft 460 kts 351°
2026-04-26 21:44 21.46375 -81.52272 32398 ft 457 kts 351°
2026-04-26 21:44 21.49517 -81.52496 31910 ft 449 kts 351°
2026-04-26 21:44 21.52624 -81.52714 31424 ft 447 kts 351°
2026-04-26 21:45 21.55724 -81.52949 30947 ft 445 kts 350°
2026-04-26 21:45 21.58751 -81.53521 30478 ft 441 kts 342°
2026-04-26 21:45 21.61669 -81.54491 30020 ft 438 kts 336°
2026-04-26 21:45 21.64394 -81.55815 29489 ft 434 kts 330°
2026-04-26 21:46 21.66983 -81.57452 28957 ft 430 kts 327°
2026-04-26 21:46 21.69540 -81.59105 28437 ft 428 kts 327°
2026-04-26 21:46 21.72094 -81.60741 27926 ft 426 kts 327°
2026-04-26 21:46 21.74629 -81.62376 27422 ft 424 kts 327°
2026-04-26 21:47 21.77151 -81.64011 26927 ft 422 kts 327°
2026-04-26 21:47 21.79657 -81.65632 26442 ft 420 kts 327°
2026-04-26 21:47 21.82154 -81.67244 25965 ft 418 kts 327°
2026-04-26 21:47 21.84641 -81.68852 25495 ft 416 kts 327°
2026-04-26 21:48 21.87117 -81.70455 25029 ft 414 kts 327°
2026-04-26 21:48 21.89580 -81.72050 24575 ft 412 kts 327°
2026-04-26 21:48 21.92034 -81.73638 24126 ft 411 kts 327°
2026-04-26 21:48 21.94478 -81.75222 23685 ft 409 kts 327°
2026-04-26 21:49 21.96880 -81.76778 23206 ft 407 kts 328°
2026-04-26 21:49 21.99301 -81.78349 22683 ft 405 kts 328°
2026-04-26 21:49 22.01710 -81.79910 22172 ft 402 kts 328°
2026-04-26 21:49 22.04100 -81.81461 21670 ft 400 kts 328°
2026-04-26 21:50 22.06479 -81.83006 21108 ft 398 kts 328°
2026-04-26 21:50 22.08842 -81.84540 20530 ft 395 kts 328°
2026-04-26 21:50 22.11186 -81.86062 19959 ft 392 kts 328°
2026-04-26 21:50 22.13514 -81.87577 19402 ft 390 kts 328°
2026-04-26 21:51 22.15830 -81.89081 18854 ft 388 kts 328°
2026-04-26 21:51 22.18099 -81.90558 18327 ft 385 kts 328°
2026-04-26 21:51 22.20387 -81.92046 17719 ft 382 kts 328°
2026-04-26 21:51 22.22651 -81.93520 17096 ft 378 kts 328°
2026-04-26 21:52 22.24889 -81.94977 16509 ft 374 kts 329°
2026-04-26 21:52 22.27103 -81.96418 15920 ft 370 kts 329°
2026-04-26 21:52 22.29295 -81.97849 15328 ft 366 kts 329°
2026-04-26 21:52 22.31465 -81.99261 14738 ft 363 kts 329°
2026-04-26 21:53 22.33608 -82.00660 14162 ft 354 kts 329°
2026-04-26 21:53 22.35666 -82.02003 13572 ft 338 kts 329°
2026-04-26 21:53 22.37636 -82.03287 12926 ft 324 kts 329°
2026-04-26 21:53 22.39535 -82.04527 12296 ft 314 kts 329°
2026-04-26 21:54 22.41379 -82.05731 11678 ft 306 kts 329°
2026-04-26 21:54 22.43160 -82.06894 11078 ft 300 kts 329°
2026-04-26 21:54 22.44926 -82.08050 10480 ft 294 kts 329°
2026-04-26 21:54 22.46666 -82.09185 9898 ft 290 kts 329°
2026-04-26 21:55 22.48376 -82.10303 9263 ft 286 kts 329°
2026-04-26 21:55 22.50065 -82.11409 8639 ft 282 kts 329°
2026-04-26 21:55 22.51736 -82.12502 8085 ft 278 kts 329°
2026-04-26 21:55 22.53377 -82.13578 7568 ft 274 kts 329°
2026-04-26 21:56 22.55001 -82.14637 7067 ft 272 kts 329°
2026-04-26 21:56 22.56613 -82.15697 6575 ft 271 kts 329°
2026-04-26 21:56 22.58201 -82.16734 6143 ft 269 kts 329°
2026-04-26 21:56 22.59804 -82.17774 5695 ft 269 kts 329°
2026-04-26 21:57 22.61360 -82.18799 5293 ft 268 kts 329°
2026-04-26 21:57 22.62947 -82.19854 4973 ft 267 kts 329°
2026-04-26 21:57 22.64511 -82.20877 4725 ft 257 kts 329°
2026-04-26 21:57 22.66008 -82.21868 4474 ft 248 kts 326°
2026-04-26 21:58 22.67231 -82.23147 4212 ft 244 kts 308°
2026-04-26 21:58 22.68082 -82.24724 3958 ft 243 kts 295°
2026-04-26 21:58 22.68772 -82.26392 3718 ft 243 kts 296°
2026-04-26 21:58 22.69495 -82.28043 3501 ft 243 kts 296°
2026-04-26 21:59 22.70195 -82.29673 3285 ft 242 kts 295°
2026-04-26 21:59 22.70891 -82.31330 3072 ft 241 kts 295°
2026-04-26 21:59 22.71593 -82.32965 3011 ft 237 kts 296°
2026-04-26 21:59 22.72295 -82.34594 3009 ft 240 kts 295°
2026-04-26 22:00 22.72998 -82.36241 3008 ft 242 kts 295°
2026-04-26 22:00 22.73700 -82.37892 3005 ft 241 kts 295°
2026-04-26 22:00 22.74402 -82.39542 3005 ft 241 kts 295°
2026-04-26 22:00 22.75107 -82.41187 3000 ft 241 kts 295°
2026-04-26 22:01 22.75803 -82.42816 3003 ft 242 kts 295°
2026-04-26 22:01 22.76506 -82.44471 3006 ft 242 kts 295°
2026-04-26 22:01 22.77213 -82.46127 3006 ft 242 kts 295°
2026-04-26 22:01 22.77919 -82.47781 3006 ft 242 kts 295°
2026-04-26 22:02 22.78621 -82.49432 3005 ft 237 kts 295°
2026-04-26 22:02 22.79339 -82.50990 2889 ft 226 kts 303°
2026-04-26 22:02 22.80394 -82.52206 2747 ft 219 kts 321°
2026-04-26 22:02 22.81604 -82.53135 2588 ft 210 kts 324°
2026-04-26 22:03 22.82786 -82.54062 2352 ft 209 kts 323°
2026-04-26 22:03 22.83965 -82.54981 2121 ft 209 kts 324°
2026-04-26 22:03 22.85164 -82.55804 1999 ft 205 kts 336°
2026-04-26 22:03 22.86553 -82.56134 1992 ft 207 kts 357°
2026-04-26 22:04 22.87976 -82.55934 1992 ft 208 kts 18°
2026-04-26 22:04 22.89193 -82.55239 2011 ft 188 kts 37°
2026-04-26 22:04 22.90070 -82.54238 2008 ft 181 kts 54°
2026-04-26 22:04 22.90780 -82.53138 2004 ft 172 kts 53°
2026-04-26 22:05 22.91465 -82.52131 1996 ft 165 kts 53°
2026-04-26 22:05 22.92142 -82.51114 1994 ft 166 kts 53°
2026-04-26 22:05 22.92784 -82.50145 1874 ft 150 kts 53°
2026-04-26 22:05 22.93383 -82.49248 1684 ft 144 kts 53°
2026-04-26 22:06 22.93958 -82.48383 1502 ft 141 kts 53°
2026-04-26 22:06 22.94523 -82.47524 1317 ft 139 kts 54°
2026-04-26 22:06 22.95078 -82.46694 1141 ft 136 kts 53°
2026-04-26 22:06 22.95624 -82.45868 973 ft 133 kts 52°
2026-04-26 22:07 22.96153 -82.45068 803 ft 130 kts 53°
2026-04-26 22:07 22.96692 -82.44261 633 ft 128 kts 50°
2026-04-26 22:07 22.97224 -82.43482 458 ft 129 kts 51°
2026-04-26 22:07 22.97743 -82.42669 283 ft 132 kts 52°
2026-04-26 22:08 22.98230 -82.41940 213 ft 102 kts 51°
2026-04-26 22:08 22.98506 -82.41532 209 ft 41 kts 56°
2026-04-26 22:08 22.98651 -82.41305 210 ft 33 kts 54°
2026-04-26 22:08 22.98755 -82.41149 215 ft 19 kts 53°
2026-04-26 22:09 22.98845 -82.41092 211 ft 17 kts
2026-04-26 22:09 22.98954 -82.41072 213 ft 15 kts
2026-04-26 22:09 22.99039 -82.41038 216 ft 15 kts 49°
2026-04-26 22:09 22.99101 -82.40946 210 ft 6 kts 55°
2026-04-26 22:10 22.99136 -82.40893 213 ft 11 kts 53°
2026-04-26 22:10 22.99178 -82.40829 217 ft 9 kts 58°
2026-04-26 22:10 22.99214 -82.40779 216 ft 6 kts 43°
2026-04-26 22:10 22.99264 -82.40787 210 ft 10 kts 326°
2026-04-26 22:11 22.99327 -82.40833 213 ft 8 kts 326°
2026-04-26 22:11 22.99381 -82.40831 215 ft 6 kts 42°
2026-04-26 22:11 22.99412 -82.40823 213 ft 6 kts 337°
2026-04-26 22:11 22.99432 -82.40837 211 ft 0 kts 324°
2026-04-26 22:12 22.99454 -82.40854 211 ft 5 kts 324°
2026-04-26 22:12 22.99454 -82.40855 211 ft 0 kts 324°